Prescott, AZ

10:04 PM MST on November 21, 2019 (GMT -0700)
Love

Weather History for KPRC - June, 2019

Change the Weather History Date:

Tuesday, June 11, 2019

  Actual Average Record
Temperature  
Mean Temperature 74 °F 69 °F  
Max Temperature 90 °F 85 °F 95 °F (1974)
Min Temperature 57 °F 53 °F 38 °F (1976)
Degree Days  
Heating Degree Days 0    
Month to date heating degree days 2  
Since 1 July heating degree days 4330  
Cooling Degree Days 8    
Month to date cooling degree days 42  
Year to date cooling degree days 43  
Growing Degree Days 24 (Base 50)    
Moisture  
Dew Point 32 °F    
Average Humidity 23    
Maximum Humidity 51    
Minimum Humidity 9    
Precipitation  
Precipitation 0.00 in 0.01 in 0.11 in (1987)
Month to date precipitation 0.11 0.09  
Year to date precipitation 6.79 4.63  
Sea Level Pressure  
Sea Level Pressure 29.99 in    
Wind  
Wind Speed 6 mph ()    
Max Wind Speed 15 mph    
Max Gust Speed 19 mph    
Visibility 10.0 miles    
Events      
T = Trace of Precipitation, MM = Missing Value Source: Averaged Metar Reports

Daily Weather History Graph

Daily Weather History Graph

Search for Another Location

Airport or City:

Astronomy

Jun. 11, 2019 Rise Set
Actual Time 5:16 AM MST 7:42 PM MST
Civil Twilight 4:46 AM MST 8:12 PM MST
Nautical Twilight 4:10 AM MST 8:48 PM MST
Astronomical Twilight 3:30 AM MST 9:28 PM MST
Moon 2:02 PM MST (6/11) 1:44 AM MST (6/11)
Length of Visible Light 15h 25m
Length of Day
14h 26m
Waxing Gibbous, 67% of the Moon is Illuminated
Jun 11
Waxing Gibbous
Jun 17
Full
Jun 25
Last Quarter
Jul 2
New
Jul 9
First Quarter

Hourly Weather History & Observations

Time (MST) Temp. Dew Point Humidity Pressure Visibility Wind Dir Wind Speed Gust Speed Precip Events Conditions
12:53 AM 62.1 °F 34.0 °F 35% 30.03 in 10.0 mi South 9.2 mph - N/A   Clear
1:53 AM 60.1 °F 35.1 °F 39% 30.03 in 10.0 mi SSW 8.1 mph - N/A   Clear
2:53 AM 63.0 °F 30.0 °F 29% 30.01 in 10.0 mi SSW 10.4 mph - N/A   Clear
3:53 AM 61.0 °F 33.1 °F 35% 30.02 in 10.0 mi South 9.2 mph - N/A   Clear
4:53 AM 59.0 °F 37.9 °F 46% 30.04 in 10.0 mi SW 3.5 mph - N/A   Clear
5:53 AM 57.9 °F 39.0 °F 49% 30.06 in 10.0 mi WNW 3.5 mph - N/A   Clear
6:53 AM 64.0 °F 43.0 °F 46% 30.06 in 10.0 mi Calm Calm - N/A   Clear
7:53 AM 73.0 °F 35.1 °F 25% 30.06 in 10.0 mi Calm Calm - N/A   Clear
8:53 AM 78.1 °F 37.0 °F 23% 30.06 in 10.0 mi NNE 3.5 mph - N/A   Clear
9:53 AM 80.1 °F 36.0 °F 20% 30.04 in 10.0 mi Calm Calm - N/A   Clear
10:53 AM 84.0 °F 28.9 °F 14% 30.04 in 10.0 mi South 4.6 mph - N/A   Clear
11:53 AM 87.1 °F 23.0 °F 10% 30.01 in 10.0 mi WSW 5.8 mph - N/A   Clear
12:53 PM 87.1 °F 26.1 °F 11% 30.01 in 10.0 mi Variable 4.6 mph - N/A   Clear
1:53 PM 89.1 °F 30.0 °F 12% 29.99 in 10.0 mi South 9.2 mph - N/A   Clear
2:53 PM 89.1 °F 30.0 °F 12% 29.96 in 10.0 mi SSW 12.7 mph - N/A   Clear
3:53 PM 90.0 °F 27.0 °F 10% 29.94 in 10.0 mi Variable 4.6 mph - N/A   Clear
4:53 PM 89.1 °F 28.0 °F 11% 29.94 in 10.0 mi Calm Calm - N/A   Clear
5:53 PM 87.1 °F 28.0 °F 12% 29.93 in 10.0 mi WSW 10.4 mph - N/A   Clear
6:53 PM 84.0 °F 30.0 °F 14% 29.93 in 10.0 mi SW 5.8 mph - N/A   Clear
7:53 PM 78.1 °F 28.0 °F 16% 29.92 in 10.0 mi WSW 9.2 mph - N/A   Clear
8:53 PM 77.0 °F 26.1 °F 15% 29.92 in 10.0 mi SW 11.5 mph - N/A   Clear
9:53 PM 75.9 °F 26.1 °F 16% 29.94 in 10.0 mi WSW 9.2 mph - N/A   Clear
10:53 PM 69.1 °F 34.0 °F 27% 29.95 in 10.0 mi South 6.9 mph - N/A   Clear
11:53 PM 66.0 °F 33.1 °F 29% 29.95 in 10.0 mi Calm Calm - N/A   Clear